HB9BTL-13 Weather Reports


Display with metric or nautical units.
time (UTC)temp
F
wind
direction
speed
MPH
gust
MPH
rain 1hr
in
rain 24hr
in
rain mn
in
humidity
%
barometer
mb
20260902082622 66 0.0 0.0 0.00 0.00 0.00 74 1023.2
20260902081118 65 0.0 0.0 0.00 0.00 0.00 75 1023.0
20260902075612 64 0.0 0.0 0.00 0.00 0.00 75 1022.8
20260902074107 63 0.0 0.0 0.00 0.00 0.00 77 1023.0
20260902072601 63 0.0 0.0 0.00 0.00 0.00 78 1022.9
20260902071056 62 0.0 0.0 0.00 0.00 0.00 79 1023.1
20260902065550 62 0.0 0.0 0.00 0.00 0.00 79 1023.0
20260902064045 61 0.0 0.0 0.00 0.00 0.00 79 1022.8
20260902062540 60 0.0 0.0 0.00 0.00 0.00 80 1023.0
20260902061035 60 0.0 0.0 0.00 0.00 0.00 81 1023.0
20260902055529 59 0.0 0.0 0.00 0.00 0.00 81 1023.0
20260902054024 59 0.0 0.0 0.00 0.00 0.00 82 1022.8
20260902052518 58 0.0 0.0 0.00 0.00 0.00 83 1022.6
20260902051013 58 0.0 0.0 0.00 0.00 0.00 82 1022.6
20260902045507 58 0.0 0.0 0.00 0.00 0.00 83 1022.5
20260902044002 58 0.0 0.0 0.00 0.00 0.00 83 1022.3
20260902042456 58 0.0 0.0 0.00 0.00 0.00 82 1022.2
20260902040951 58 0.0 0.0 0.00 0.00 0.00 81 1022.3
20260902035446 58 0.0 0.0 0.00 0.00 0.00 83 1022.3
20260902033941 58 0.0 0.0 0.00 0.00 0.00 82 1022.2
20260902032436 59 0.0 0.0 0.00 0.00 0.00 80 1022.3
20260902030930 60 0.0 0.0 0.00 0.00 0.00 80 1022.2
20260902025425 60 0.0 0.0 0.00 0.00 0.00 79 1022.2
20260902023919 60 0.0 0.0 0.00 0.00 0.00 80 1022.2
20260902022414 60 0.0 0.0 0.00 0.00 0.00 80 1022.2
20260902020908 60 0.0 0.0 0.00 0.00 0.00 80 1022.1
20260902015403 60 0.0 0.0 0.00 0.00 0.00 80 1022.0
20260902013858 60 0.0 0.0 0.00 0.00 0.00 80 1022.0
20260902012352 60 0.0 0.0 0.00 0.00 0.00 80 1022.1
20260902010847 60 0.0 0.0 0.00 0.00 0.00 79 1022.2
20260902005341 60 0.0 0.0 0.00 0.00 0.00 80 1022.2
20260902003836 60 0.0 0.0 0.00 0.00 0.00 79 1022.3
20260902002330 60 0.0 0.0 0.00 0.00 0.00 79 1022.2
20260902000826 61 0.0 0.0 0.00 0.00 0.00 78 1022.3
20260901235320 61 0.0 0.0 0.00 0.00 0.00 78 1022.2
20260901233815 62 0.0 0.0 0.00 0.00 0.00 77 1022.3
20260901232309 63 0.0 0.0 0.00 0.00 0.00 75 1022.4
20260901230804 63 0.0 0.0 0.00 0.00 0.00 75 1022.3
20260901225258 63 0.0 0.0 0.00 0.00 0.00 76 1022.2
20260901223753 63 0.0 0.0 0.00 0.00 0.00 74 1022.2
20260901222248 64 0.0 0.0 0.00 0.00 0.00 73 1022.2
20260901220742 64 0.0 0.0 0.00 0.00 0.00 72 1022.2
20260901215237 66 0.0 0.0 0.00 0.00 0.00 69 1022.3
20260901213731 65 0.0 0.0 0.00 0.00 0.00 70 1022.2
20260901212225 66 0.0 0.0 0.00 0.00 0.00 70 1022.3
20260901210720 66 0.0 0.0 0.00 0.00 0.00 69 1022.3
20260901205214 67 0.0 0.0 0.00 0.00 0.00 67 1022.2
20260901203709 67 0.0 0.0 0.00 0.00 0.00 67 1022.2
20260901202204 68 0.0 0.0 0.00 0.00 0.00 66 1022.2
20260901200658 68 0.0 0.0 0.00 0.00 0.00 66 1022.1
20260901195154 68 0.0 0.0 0.00 0.00 0.00 64 1022.1
20260901193649 68 0.0 0.0 0.00 0.00 0.00 64 1022.2
20260901192142 69 0.0 0.0 0.00 0.00 0.00 65 1022.2
20260901190637 69 0.0 0.0 0.00 0.00 0.00 64 1022.0
20260901185131 70 0.0 0.0 0.00 0.00 0.00 62 1021.9
20260901183627 70 0.0 0.0 0.00 0.00 0.00 63 1021.7
20260901182121 71 0.0 0.0 0.00 0.00 0.00 61 1021.6
20260901180616 72 0.0 0.0 0.00 0.00 0.00 61 1021.6
20260901175110 73 0.0 0.0 0.00 0.00 0.00 60 1021.5
20260901173605 74 0.0 0.0 0.00 0.00 0.00 60 1021.5
20260901172059 75 0.0 0.0 0.00 0.00 0.00 58 1021.3
20260901170553 75 0.0 0.0 0.00 0.00 0.00 56 1021.4
20260901165049 76 0.0 0.0 0.00 0.00 0.00 52 1021.4
20260901163544 78 0.0 0.0 0.00 0.00 0.00 50 1021.6
20260901162038 78 0.0 0.0 0.00 0.00 0.00 52 1021.6
20260901160532 78 0.0 0.0 0.00 0.00 0.00 52 1021.6
20260901155027 79 0.0 0.0 0.00 0.00 0.00 51 1021.7
20260901153522 79 0.0 0.0 0.00 0.00 0.00 51 1021.7
20260901152017 78 0.0 0.0 0.00 0.00 0.00 54 1021.8
20260901150512 78 0.0 0.0 0.00 0.00 0.00 52 1021.7
20260901145006 78 0.0 0.0 0.00 0.00 0.00 53 1021.7
20260901143501 78 0.0 0.0 0.00 0.00 0.00 52 1021.8
20260901141955 78 0.0 0.0 0.00 0.00 0.00 54 1021.7
20260901140449 78 0.0 0.0 0.00 0.00 0.00 53 1021.9
20260901134945 78 0.0 0.0 0.00 0.00 0.00 52 1022.0
20260901133439 77 0.0 0.0 0.00 0.00 0.00 52 1022.0
20260901131934 78 0.0 0.0 0.00 0.00 0.00 53 1022.1
20260901130428 76 0.0 0.0 0.00 0.00 0.00 55 1022.3
20260901124923 76 0.0 0.0 0.00 0.00 0.00 58 1022.4
20260901123418 76 0.0 0.0 0.00 0.00 0.00 56 1022.5
20260901121912 76 0.0 0.0 0.00 0.00 0.00 57 1022.6
20260901120406 74 0.0 0.0 0.00 0.00 0.00 59 1022.7
20260901114901 74 0.0 0.0 0.00 0.00 0.00 59 1022.8
20260901111850 75 0.0 0.0 0.00 0.00 0.00 59 1022.9
20260901110345 73 0.0 0.0 0.00 0.00 0.00 62 1023.0
20260901104839 72 0.0 0.0 0.00 0.00 0.00 63 1023.1
20260901103335 72 0.0 0.0 0.00 0.00 0.00 63 1023.2
20260901101829 72 0.0 0.0 0.00 0.00 0.00 62 1023.4
20260901100323 72 0.0 0.0 0.00 0.00 0.00 63 1023.5
20260901094819 72 0.0 0.0 0.00 0.00 0.00 63 1023.5
20260901093313 72 0.0 0.0 0.00 0.00 0.00 65 1023.4
20260901091808 70 0.0 0.0 0.00 0.00 0.00 66 1023.5
20260901084756 69 0.0 0.0 0.00 0.00 0.00 70 1023.6